Flag for United Kingdom Weather past 2 weeks in Cheltenham, England, United Kingdom

Now
37 °F

Passing clouds.


Feels Like: 30 °F
Forecast: 36 / 43 °F
Wind: 10 mph from Southwest

Location: Staverton Private

Current Time: Mar 2, 2015 at 8:22:56 AM

Latest Report: Mar 2, 2015 at 7:50 AM


Visibility: N/A

Pressure: 29.65 "Hg

Humidity: 87%

Dew point: 34 °F

Location of CheltenhamLocation

Historic Weather in Cheltenham — Graph

°F

Cheltenham temperature yesterday

Maximum temperature yesterday: 50 °F (at 11:50 AM)
Minimum temperature yesterday: 43 °F (at 4:20 PM)
Average temperature yesterday: 47 °F

Past Weeks' High & Low Weather Summary

 TemperatureHumidityPressure
High55 °F (Feb 25, 2:20 PM)100% (Feb 16, 10:20 AM)30.72 "Hg (Feb 16, 10:20 AM)
Low32 °F (Feb 17, 7:50 AM)50% (Feb 27, 1:20 PM)29.21 "Hg (Feb 23, 12:50 PM)
Average45 °F80%29.87 "Hg
* Reported Feb 15 9:20 AM — Mar 2 7:20 AM, Cheltenham, Weather by CustomWeather, © 2015

Note: Actual official high and low records may vary slightly from our data, if they occured in-between our weather recording intervals... More about our weather records

Advertising

Cheltenham weather history for previous 24 hours

 ConditionsComfort  
Time TempWeatherWind HumidityBarometerVisibility
7:20 AM
Mon, Mar 2
37 °FScattered showers. Scattered clouds.10 mph93%29.62 "HgN/A
6:50 AM39 °FScattered showers. Passing clouds.13 mph93%29.59 "HgN/A
5:20 PM
Sun, Mar 1
43 °FScattered clouds.14 mph87%29.42 "HgN/A
4:50 PM43 °FScattered clouds.16 mph87%29.42 "HgN/A
4:20 PM43 °FScattered clouds.12 mph87%29.42 "HgN/A
3:20 PM48 °FRain showers. Overcast.14 mph71%29.47 "HgN/A
2:50 PM48 °FScattered showers. Overcast.17 mph71%29.45 "HgN/A
2:20 PM50 °FScattered showers. Overcast.15 mph67%29.47 "HgN/A
1:50 PM50 °FScattered showers. More clouds than sun.12 mph67%29.50 "HgN/A
1:20 PM48 °FScattered showers. More clouds than sun.12 mph76%29.50 "HgN/A
12:50 PM46 °FSprinkles. More clouds than sun.12 mph82%29.53 "HgN/A
12:20 PM50 °FScattered showers. Passing clouds.13 mph58%29.56 "HgN/A
11:50 AM50 °FPassing clouds.10 mph58%29.56 "HgN/A
11:20 AM48 °FPassing clouds.12 mph58%29.56 "HgN/A
10:50 AM48 °FPassing clouds.15 mph58%29.59 "HgN/A
10:20 AM48 °FPassing clouds.13 mph62%29.56 "HgN/A
9:50 AM48 °FPassing clouds.15 mph62%29.56 "HgN/A
9:20 AM46 °FPassing clouds.15 mph66%29.56 "HgN/A
8:50 AM46 °FPassing clouds.12 mph71%29.56 "HgN/A
Weather by CustomWeather, © 2015

See weather overviewHow to use our weather pages